EB5EEV-5 Weather Reports


time (UTC)temp
C
wind
direction
speed
KPH
gust
KPH
rain 1hr
cm
rain 24hr
cm
rain mn
cm
humidity
%
barometer
mb
20260502170120 20 311 3.2 3.2 0.00 0.00 0.03 8 1013.4
20260502163404 20 256 6.4 9.7 0.00 0.00 0.03 7 1013.9
20260502162125 20 332 8.0 11.3 0.00 0.00 0.03 7 1013.9
20260502160700 20 329 14.5 19.3 0.00 0.00 0.03 7 1013.8
20260502151228 21 326 4.8 4.8 0.00 0.00 0.03 7 1014.4
20260502123228 20 335 3.2 9.7 0.00 0.00 0.03 8 1016.3
20260502121913 20 357 3.2 6.4 0.00 0.00 0.03 8 1016.3
20260502120658 20 310 4.8 6.4 0.00 0.00 0.03 8 1016.5
20260502115300 20 302 6.4 6.4 0.00 0.00 0.03 8 1016.7
20260502114033 20 293 1.6 1.6 0.00 0.00 0.03 8 1016.9
20260502112538 20 0 0.0 1.6 0.00 0.00 0.03 8 1016.9
20260502111332 20 0 0.0 1.6 0.00 0.00 0.03 8 1017.0
20260502110045 19 232 1.6 4.8 0.00 0.00 0.03 8 1017.1
20260502105805 19 232 1.6 4.8 0.00 0.00 0.03 8 1017.1
20260502104511 20 0 0.0 0.0 0.00 0.00 0.03 8 1017.2
20260502103224 20 0 0.0 0.0 0.00 0.00 0.03 8 1017.2
20260502102016 18 127 4.8 4.8 0.00 0.00 0.03 8 1017.3
20260502100702 18 0 0.0 0.0 0.00 0.00 0.03 8 1017.5
20260502091416 17 130 1.6 4.8 0.00 0.00 0.00 8 1017.7
20260502071132 18 0 0.0 0.0 0.00 0.00 0.00 8 1017.5
20260502065817 17 0 0.0 0.0 0.00 0.00 0.00 8 1017.4
20260502064612 17 0 0.0 0.0 0.00 0.00 0.00 8 1017.4
20260502063145 17 0 0.0 0.0 0.00 0.00 0.00 8 1017.6
20260502061845 17 135 1.6 1.6 0.00 0.00 0.00 8 1017.6
20260502060446 17 0 0.0 0.0 0.00 0.00 0.00 8 1017.5
20260502054023 17 0 0.0 0.0 0.00 0.00 0.00 8 1017.4
20260502052531 17 0 0.0 1.6 0.00 0.00 0.00 8 1017.1
20260502051051 17 0 0.0 0.0 0.00 0.00 0.00 8 1017.3
20260502045556 17 0 0.0 0.0 0.00 0.00 0.00 8 1017.2
20260502044105 17 0 0.0 0.0 0.00 0.00 0.00 8 1017.4
20260502042645 17 0 0.0 0.0 0.00 0.00 0.00 8 1017.4
20260502041234 17 0 0.0 0.0 0.00 0.00 0.00 8 1017.4
20260502035926 17 0 0.0 0.0 0.00 0.00 0.00 8 1017.6
20260502034536 17 0 0.0 1.6 0.00 0.00 0.00 8 1017.6
20260502033313 17 0 0.0 1.6 0.00 0.00 0.00 8 1017.6
20260502031836 17 0 0.0 1.6 0.00 0.00 0.00 8 1017.7
20260502030637 17 0 0.0 0.0 0.00 0.00 0.00 8 1017.5
20260502025150 17 0 0.0 0.0 0.00 0.00 0.00 8 1017.6
20260502023805 17 0 0.0 0.0 0.00 0.00 0.00 8 1017.6
20260502022456 17 0 0.0 0.0 0.00 0.00 0.00 8 1017.6
20260502021036 17 0 0.0 1.6 0.00 0.00 0.00 8 1017.8
20260502015743 17 0 0.0 0.0 0.00 0.00 0.00 8 1017.8
20260502014445 17 0 0.0 0.0 0.00 0.00 0.00 8 1017.9
20260502013014 16 0 0.0 0.0 0.00 0.00 0.00 8 1018.0
20260502011639 16 0 0.0 0.0 0.00 0.00 0.00 8 1018.0
20260502010401 16 0 0.0 1.6 0.00 0.00 0.00 8 1018.2
20260502005141 17 0 0.0 1.6 0.00 0.00 0.00 8 1018.2
20260502003911 17 0 0.0 1.6 0.00 0.00 0.00 8 1018.2
20260502002628 17 0 0.0 1.6 0.00 0.00 0.00 8 1018.5
20260502001416 17 0 0.0 0.0 0.00 0.00 0.00 8 1018.8
20260502000221 17 0 0.0 0.0 0.00 0.00 0.00 8 1018.8
20260501234913 17 0 0.0 0.0 0.00 0.00 0.00 8 1018.8
20260501233427 17 0 0.0 0.0 0.00 0.00 0.00 8 1019.0
20260501232155 17 0 0.0 0.0 0.00 0.00 0.00 8 1019.1
20260501230906 17 153 1.6 1.6 0.00 0.00 0.00 8 1019.2
20260501225538 17 0 0.0 0.0 0.00 0.00 0.00 8 1019.0
20260501224321 17 0 0.0 0.0 0.00 0.00 0.00 8 1019.0
20260501223045 17 0 0.0 0.0 0.00 0.00 0.00 8 1019.2
20260501221849 17 0 0.0 0.0 0.00 0.00 0.00 8 1019.2
20260501220539 18 0 0.0 0.0 0.00 0.00 0.00 8 1019.3
20260501215123 18 0 0.0 0.0 0.00 0.00 0.08 8 1019.4
20260501213840 18 0 0.0 1.6 0.00 0.00 0.08 8 1019.4
20260501212608 18 143 1.6 1.6 0.00 0.00 0.08 8 1019.6
20260501211201 18 113 4.8 4.8 0.00 0.00 0.08 8 1019.7
20260501204505 18 0 0.0 3.2 0.00 0.00 0.08 8 1019.4
20260501203109 18 0 0.0 3.2 0.00 0.00 0.08 8 1019.4
20260501201626 18 0 0.0 0.0 0.00 0.00 0.08 8 1019.2
20260501200252 18 0 0.0 1.6 0.00 0.00 0.08 8 1019.1
20260501194754 18 0 0.0 6.4 0.00 0.00 0.08 8 1018.8
20260501193405 18 0 0.0 1.6 0.00 0.00 0.08 8 1018.7
20260501192128 18 144 4.8 6.4 0.00 0.00 0.08 8 1018.4
20260501190650 18 220 1.6 1.6 0.00 0.00 0.08 8 1018.2
20260501185205 18 229 1.6 4.8 0.00 0.00 0.08 8 1018.2
20260501183840 18 234 1.6 4.8 0.00 0.00 0.08 8 1018.2
20260501182556 18 191 3.2 3.2 0.00 0.00 0.08 8 1018.2